Regional Weather Roundup
Issued by NWS

Home | Current Version | Previous Version | Text Only | Print | Product List | Glossary On
Versions: 1 2 3 4 5 6 7 8 9 10 11 12 13 14 15 16 17 18 19 20 21 22 23 24 25 26 27 28 29 30 31 32 33 34 35 36 37 38 39 40 41 42 43 44 45 46 47 48 49 50
000
ASUS43 KMPX 180501
RWRMN
WEATHER ROUNDUP FOR MINNESOTA
NATIONAL WEATHER SERVICE TWIN CITIES/CHANHASSEN MN
1100 PM CST SAT FEB 17 2018


NOTE: "FAIR" INDICATES FEW OR NO CLOUDS BELOW 12,000 FEET WITH NO
SIGNIFICANT WEATHER AND/OR OBSTRUCTIONS TO VISIBILITY. N/A MEANS
CURRENT SKY AND/OR WEATHER CONDITIONS ARE NOT AVAILABLE.

MNZ060>063-068>070-180600-
   Twin Cities Metro

CITY           SKY/WX    TMP DP  RH WIND       PRES   REMARKS
TWIN CITIES    FAIR      23   7  50 W5        30.08R WCI  17
ST PAUL        FAIR      22   6  50 W5        30.09R WCI  16
CRYSTAL        FAIR      20   4  50 SW3       30.06R
BLAINE         FAIR      19   7  58 W3        30.06R
LAKEVILLE      FAIR      19   7  58 W3        30.08R
EDEN PRAIRIE   FAIR      21   6  52 SW5       30.07R WCI  15
SOUTH ST PAUL  FAIR      22   5  47 CALM      30.08R
LAKE ELMO      FAIR      19   9  63 W3        30.07R
$$
MNZ001>005-007-008-013>017-022>024-027-028-180600-
   Northwest Minnesota

CITY           SKY/WX    TMP DP  RH WIND       PRES   REMARKS
BEMIDJI        CLOUDY    11   4  74 CALM      29.93S
HALLOCK        FAIR       5  -2  72 S3        29.97R
WARROAD        FAIR      -2  -8  78 CALM      29.95S
THIEF RVR FALL CLOUDY    10   1  67 CALM      29.97R
CROOKSTON      FAIR      10   7  85 N6        29.98F WCI   1
FOSSTON        CLOUDY    10   3  72 CALM      29.96S
DETROIT LAKES  FAIR       9   5  85 CALM      29.96S
MOORHEAD       FAIR      12   7  79 CALM      29.99F
PARK RAPIDS    FAIR       6   0  76 S5        29.95R WCI  -3
MAHNOMEN       CLOUDY     9   5  81 S9        29.96R WCI  -4
$$
MNZ006-009>011-018-025>026-180600-
   North Central Minnesota

CITY           SKY/WX    TMP DP  RH WIND       PRES   REMARKS
BAUDETTE       FAIR       0  -8  69 NE3       29.94R
FLAG ISLAND    FAIR       0  -9  65 CALM      29.93R
INTL FALLS     CLOUDY     8  -5  55 NW7       29.94R WCI  -3
WASKISH        FLURRIES  12   7  79 NW6       29.94S WCI   3
BIG FORK       FLURRIES  10   3  72 CALM      29.94R
LONGVILLE      CLOUDY     1  -2  85 CALM      29.96F
GRAND RAPIDS   FAIR      11   3  70 SW5       29.97R WCI   3
CRANE LAKE     CLOUDY    10   3  72 W3        29.95R
ORR            CLOUDY    10   1  67 W6        29.90R WCI   1
COOK           CLOUDY    10   1  67 W8        29.92R WCI  -1
WALKER         CLOUDY     9   2  72 SW5       29.95S WCI   1
$$
MNZ012-019>021-037-180600-
   Northeast Minnesota

CITY           SKY/WX    TMP DP  RH WIND       PRES   REMARKS
DULUTH         FAIR      11   1  64 W7        29.96R WCI   0
ELY            MOCLDY    10   1  67 SW6       29.90S WCI   1
HIBBING        FAIR       6  -1  73 SW5       29.93S WCI  -3
EVELETH        FAIR     N/A N/A N/A W5        29.94S
DULUTH HARBOR  FAIR      19   7  58 W8        30.03R WCI   9
TWO HARBORS    FAIR      16   3  57 W5        29.95R WCI   9
G MARAIS ARPRT FAIR       9  -4  56 W6        29.84S WCI  -1
$$
MNZ029>031-032-039>041-046>048-054>057-064-180600-
   West Central Minnesota

CITY           SKY/WX    TMP DP  RH WIND       PRES   REMARKS
FERGUS FALLS   FAIR      10   7  85 SE6       29.99S WCI   1
WHEATON        CLOUDY    14   3  62 S3        30.01F
MORRIS         CLOUDY    10   1  67 SE3       29.98F
ALEXANDRIA     FAIR      10   3  73 S5        30.00S WCI   2
ELBOW LAKE     FAIR      11   5  76 E3        30.00F
WADENA         FAIR       3   0  85 CALM      29.98S
GLENWOOD       FAIR      12   5  73 CALM      30.00F
APPLETON       PTCLDY    14   9  79 CALM      30.01F
BENSON         PTCLDY    10   3  72 CALM      30.02F
MADISON        PTCLDY    19  12  73 S6        30.02F WCI  11
WILLMAR        FAIR      16   5  62 S3        30.05F
$$
MNZ033>034-036-042>043-049>051-058-059-180600-
   Central Minnesota

CITY           SKY/WX    TMP DP  RH WIND       PRES   REMARKS
ST CLOUD       FAIR      13   4  67 CALM      30.04R
SAUK CENTRE    FAIR       8   3  79 CALM      30.01F
PAYNESVILLE    FAIR       9   4  81 CALM      30.03S
AITKIN         FAIR       7   0  72 CALM      29.99R
PINE RIVER     FAIR       1  -2  85 CALM      30.01S
BRAINERD       FAIR       8  -1  66 S5        30.00R WCI   0
STAPLES        FAIR       7   0  72 CALM      29.99R
LONG PRAIRIE   FAIR       9   1  72 SE5       30.01S WCI   0
LITTLE FALLS   FAIR      10   0  61 CALM      30.03S
LITCHFIELD     FAIR      18   7  62 CALM      30.06R
BUFFALO        FAIR      17   7  65 CALM      30.06S
MAPLE LAKE     FAIR      15   8  73 CALM      30.06R
HUTCHINSON     FAIR      14   9  78 CALM      30.07R
$$
MNZ037-044-045-052-053-180600-
   East Central Minnesota

CITY           SKY/WX    TMP DP  RH WIND       PRES   REMARKS
PRINCETON      FAIR      14   5  67 CALM      30.05R
MORA           FAIR      16   3  57 CALM      30.06R
CAMBRIDGE      FAIR      18   7  62 CALM      30.06R
RUSH CITY      FAIR      16   4  60 W3        30.06R
MOOSE LAKE     FAIR      14   5  67 W3        29.99S
HINCKLEY       FAIR      14   5  67 W6        30.04R WCI   5
CLOQUET        FAIR      12   1  62 SW5       29.98R WCI   4
MCGREGOR       FAIR      14   5  67 SW5       30.00R WCI   6
$$
MNZ071>073-080-081-089-090-097-098-180600-
   Southwest Minnesota

CITY           SKY/WX    TMP DP  RH WIND       PRES   REMARKS
MONTEVIDEO     CLOUDY    18   9  68 SW3       30.03F
GRANITE FALLS  CLOUDY    18  11  72 S6        30.06S WCI  10
CANBY          CLOUDY    23  16  77 SW6       30.02F WCI  15
MARSHALL       MOCLDY    20  16  84 S7        30.03F WCI  11
REDWOOD FALLS  CLOUDY    17  10  74 S6        30.05S WCI   9
OLIVIA         CLOUDY    18   9  68 CALM      30.04F
PIPESTONE      CLOUDY    19  18  93 CALM      30.00F
WINDOM         CLOUDY    16   1  53 CALM      30.04F
WORTHINGTON    CLOUDY    16  15  96 SW6       30.03F WCI   7
JACKSON        CLOUDY    18  14  86 CALM      30.04F
TRACY          CLOUDY    23  19  86 CALM      30.02F
SLAYTON        CLOUDY    15  13  90 CALM      30.01F
$$
MNZ065>067-074>077-082>085-091>093-180600-
   South Central Minnesota

CITY           SKY/WX    TMP DP  RH WIND       PRES   REMARKS
MANKATO        FAIR      21  15  78 SW3       30.08S
NEW ULM        CLOUDY    16  10  79 S3        30.07S
ST JAMES       CLOUDY    16  12  86 S6        30.09S WCI   7
FAIRMONT       CLEAR     18  14  84 W3        30.07F
GLENCOE        FAIR      17  10  74 CALM      30.07R
FARIBAULT      FAIR      18  12  79 CALM      30.09R
OWATONNA       FAIR      12   9  85 CALM      30.08R
WASECA         FAIR      14  10  85 CALM      30.10R
ALBERT LEA     FAIR      21  18  86 W5        30.09R WCI  15
$$
MNZ078>079-086>088-094>096-180600-
   Southeast Minnesota

CITY           SKY/WX    TMP DP  RH WIND       PRES   REMARKS
ROCHESTER      FAIR      17  15  92 W9        30.07R WCI   6
RED WING       FAIR      16   5  62 CALM      30.08R
STANTON        FAIR      13   6  73 S5        30.08R WCI   6
DODGE CENTER   FAIR      16  12  86 W7        30.07R WCI   6
WINONA         FAIR      25  18  74 CALM      30.09R
AUSTIN         FAIR      18  16  93 W3        30.09R
PRESTON        FAIR      22  19  88 W12       30.08R WCI  11
$$
ABBREVIATIONS USED IN REMARKS
   TC - TEMPERATURES IN CELSIUS
  WCI - WIND CHILL INDEX
   HX - HEAT INDEX
  VSB - VISIBILITY
$$




USA.gov is the U.S. government's official web portal to all federal, state and local government web resources and services.